FW8478 Weather Reports


time (UTC)temp
C
wind
direction
speed
KPH
gust
KPH
rain 1hr
cm
rain 24hr
cm
rain mn
cm
humidity
%
barometer
mb
20260507054609 4 182 1.6 8.0 0.08 0.15 0.15 94 1015.7
20260507054051 4 0 3.2 8.0 0.10 0.15 0.15 94 1015.7
20260507053554 4 153 1.6 11.3 0.13 0.15 0.15 93 1015.6
20260507053105 4 188 1.6 11.3 0.13 0.15 0.15 94 1015.6
20260507052551 4 204 3.2 11.3 0.10 0.13 0.13 93 1015.6
20260507052051 4 126 3.2 9.7 0.10 0.13 0.13 93 1015.6
20260507051558 4 153 1.6 12.9 0.10 0.13 0.13 93 1015.6
20260507051052 4 146 3.2 14.5 0.10 0.13 0.13 92 1015.6
20260507050549 4 132 6.4 14.5 0.10 0.13 0.13 92 1015.5
20260507050059 5 149 4.8 12.9 0.08 0.10 0.10 91 1015.6
20260507045553 5 215 3.2 12.9 0.08 0.10 0.10 91 1015.6
20260507045049 5 196 3.2 12.9 0.05 0.08 0.08 90 1015.6
20260507044556 5 238 4.8 14.5 0.05 0.08 0.08 89 1015.6
20260507044052 5 234 6.4 14.5 0.03 0.05 0.05 88 1015.7
20260507043551 6 246 4.8 14.5 0.00 0.03 0.03 88 1015.6
20260507043053 6 225 4.8 11.3 0.00 0.03 0.03 87 1015.5
20260507042556 6 215 3.2 9.7 0.00 0.03 0.03 88 1015.5
20260507042048 6 193 3.2 9.7 0.03 0.03 0.03 87 1015.5
20260507041602 6 250 0.0 11.3 0.03 0.03 0.03 86 1015.4
20260507041054 6 221 3.2 11.3 0.03 0.03 0.03 86 1015.4
20260507040550 6 0 4.8 11.3 0.03 0.03 0.03 85 1015.3
20260507040057 6 253 0.0 6.4 0.03 0.03 0.03 87 1015.3
20260507035549 6 0 0.0 3.2 0.03 0.03 0.03 87 1015.3
20260507035049 6 0 0.0 4.8 0.03 0.03 0.03 88 1015.3
20260507034609 6 0 0.0 4.8 0.03 0.03 0.03 87 1015.2
20260507034049 6 0 0.0 6.4 0.03 0.03 0.03 86 1015.2
20260507033552 6 250 1.6 6.4 0.03 0.03 0.03 85 1015.1
20260507033056 6 271 3.2 6.4 0.03 0.03 0.03 84 1015.1
20260507032554 6 213 3.2 8.0 0.03 0.03 0.03 84 1015.0
20260507032056 6 229 1.6 8.0 0.00 0.00 0.00 83 1015.1
20260507031600 7 251 3.2 6.4 0.00 0.00 0.00 82 1015.1
20260507031049 7 246 3.2 8.0 0.00 0.00 0.00 81 1014.9
20260507030549 7 211 1.6 9.7 0.00 0.00 0.00 81 1014.9
20260507030053 7 195 3.2 9.7 0.00 0.00 0.00 79 1014.9
20260507025551 7 220 1.6 8.0 0.00 0.00 0.00 79 1014.8
20260507025052 7 250 1.6 14.5 0.00 0.00 0.00 79 1014.8
20260507024557 7 225 3.2 14.5 0.00 0.00 0.00 78 1014.7
20260507024050 7 215 4.8 14.5 0.00 0.00 0.00 77 1014.8
20260507023554 7 267 1.6 12.9 0.00 0.00 0.00 76 1014.7
20260507023052 7 184 4.8 12.9 0.00 0.00 0.00 75 1014.7
20260507022552 7 271 3.2 12.9 0.00 0.00 0.00 75 1014.7
20260507022052 7 221 6.4 17.7 0.00 0.00 0.00 74 1014.6
20260507021627 7 239 8.0 17.7 0.00 0.00 0.00 73 1014.6
20260507021051 8 213 6.4 14.5 0.00 0.00 0.00 71 1014.6
20260507020550 8 204 6.4 12.9 0.00 0.00 0.00 71 1014.6
20260507020112 8 186 4.8 12.9 0.00 0.00 0.00 73 1014.6
20260507015554 8 250 4.8 16.1 0.00 0.00 0.00 73 1014.5
20260507015051 8 215 4.8 16.1 0.00 0.00 0.00 73 1014.5
20260507014620 8 223 3.2 14.5 0.00 0.00 0.00 72 1014.5
20260507014051 8 182 6.4 16.1 0.00 0.00 0.00 70 1014.5
20260507013551 8 197 6.4 16.1 0.00 0.00 0.00 71 1014.5
20260507013053 8 270 4.8 16.1 0.00 0.00 0.00 71 1014.5
20260507012551 8 211 6.4 16.1 0.00 0.00 0.00 71 1014.5
20260507012050 8 264 4.8 11.3 0.00 0.00 0.00 72 1014.5
20260507011601 8 240 4.8 11.3 0.00 0.00 0.00 71 1014.4
20260507011050 8 227 4.8 11.3 0.00 0.00 0.00 72 1014.5
20260507010553 8 242 3.2 14.5 0.00 0.00 0.00 72 1014.5
20260507010054 8 266 4.8 14.5 0.00 0.00 0.00 73 1014.4
20260507005550 8 272 1.6 14.5 0.00 0.00 0.00 70 1014.3
20260507005052 8 228 4.8 14.5 0.00 0.00 0.00 72 1014.2
20260507004557 8 205 4.8 14.5 0.00 0.00 0.00 72 1014.3
20260507004049 8 244 3.2 14.5 0.00 0.00 0.00 72 1014.3
20260507003556 8 196 4.8 14.5 0.00 0.00 0.00 72 1014.2
20260507003057 8 218 3.2 12.9 0.00 0.00 0.00 72 1014.3
20260507002552 8 240 3.2 12.9 0.00 0.00 0.00 72 1014.1
20260507002051 8 232 3.2 12.9 0.00 0.00 0.00 72 1014.2
20260507001602 9 180 6.4 14.5 0.00 0.00 0.00 70 1014.2
20260507001052 9 203 6.4 16.1 0.00 0.00 0.00 69 1014.2
20260507000553 9 233 4.8 16.1 0.00 0.00 0.00 68 1014.2
20260507000123 9 228 4.8 16.1 0.00 0.00 0.00 68 1014.2
20260506235548 9 217 6.4 16.1 0.00 0.00 0.00 67 1014.1
20260506235051 9 226 4.8 20.9 0.00 0.00 0.00 69 1014.0
20260506234618 9 188 6.4 20.9 0.00 0.00 0.00 69 1014.1
20260506234051 9 175 4.8 14.5 0.00 0.00 0.00 69 1014.0
20260506233554 9 207 4.8 16.1 0.00 0.00 0.00 68 1014.0
20260506233052 8 244 3.2 16.1 0.00 0.00 0.00 69 1014.0
20260506232549 9 215 6.4 14.5 0.00 0.00 0.00 68 1014.0
20260506232051 9 188 6.4 17.7 0.00 0.00 0.00 68 1013.9
20260506231553 9 205 6.4 17.7 0.00 0.00 0.00 67 1014.0
20260506231051 9 134 4.8 14.5 0.00 0.00 0.00 66 1013.8
20260506230551 10 209 3.2 14.5 0.00 0.00 0.00 67 1013.9
20260506230104 10 238 4.8 14.5 0.00 0.00 0.00 67 1013.9
20260506225551 10 225 4.8 17.7 0.00 0.00 0.00 66 1013.8
20260506225052 9 288 4.8 17.7 0.00 0.00 0.00 66 1013.8
20260506224552 10 222 8.0 19.3 0.00 0.00 0.00 65 1013.7
20260506224050 10 207 6.4 19.3 0.00 0.00 0.00 65 1013.7
20260506223551 10 192 3.2 16.1 0.00 0.00 0.00 65 1013.6
20260506223105 10 242 6.4 16.1 0.00 0.00 0.00 66 1013.6
20260506222551 10 288 8.0 16.1 0.00 0.00 0.00 67 1013.6
20260506222049 10 190 3.2 14.5 0.00 0.00 0.00 68 1013.6
20260506221602 9 267 6.4 14.5 0.00 0.00 0.00 69 1013.6
20260506221049 10 179 6.4 14.5 0.00 0.00 0.00 69 1013.6
20260506220549 9 201 1.6 8.0 0.00 0.00 0.00 71 1013.5
20260506220057 9 244 1.6 9.7 0.00 0.00 0.00 72 1013.5
20260506215554 8 250 3.2 9.7 0.00 0.00 0.00 71 1013.6
20260506215051 8 244 1.6 12.9 0.00 0.00 0.00 74 1013.5
20260506214601 8 251 3.2 12.9 0.00 0.00 0.00 73 1013.5
20260506214050 8 260 4.8 11.3 0.00 0.00 0.00 74 1013.5
20260506213552 8 271 4.8 11.3 0.00 0.00 0.00 73 1013.4
20260506213101 8 272 6.4 11.3 0.00 0.00 0.00 73 1013.4
20260506212552 8 248 3.2 9.7 0.00 0.00 0.00 73 1013.3
20260506212050 8 247 3.2 9.7 0.00 0.00 0.00 73 1013.3
20260506211556 8 266 3.2 11.3 0.00 0.00 0.00 74 1013.3
20260506211051 8 223 3.2 11.3 0.00 0.00 0.00 72 1013.2
20260506210553 8 229 3.2 11.3 0.00 0.00 0.00 72 1013.1
20260506210055 8 254 4.8 11.3 0.00 0.00 0.00 74 1013.1
20260506205549 8 233 4.8 11.3 0.00 0.00 0.00 74 1013.2
20260506205052 8 271 3.2 11.3 0.00 0.00 0.00 74 1013.1
20260506204556 8 277 3.2 11.3 0.00 0.00 0.00 73 1013.1
20260506204052 8 233 4.8 11.3 0.00 0.00 0.00 74 1013.0
20260506203552 8 273 4.8 14.5 0.00 0.00 0.00 74 1012.9
20260506203054 8 278 8.0 14.5 0.00 0.00 0.00 72 1012.9
20260506202552 8 281 1.6 11.3 0.00 0.00 0.00 71 1012.8
20260506202050 8 304 3.2 11.3 0.00 0.00 0.00 70 1012.9
20260506201553 8 260 3.2 9.7 0.00 0.00 0.00 70 1012.8
20260506201049 8 256 1.6 8.0 0.00 0.00 0.00 70 1012.7
20260506200550 8 256 1.6 8.0 0.00 0.00 0.00 72 1012.7
20260506200054 8 161 3.2 8.0 0.00 0.00 0.00 71 1012.7
20260506195549 8 167 3.2 8.0 0.00 0.00 0.00 70 1012.7
20260506195053 8 180 3.2 8.0 0.00 0.00 0.00 70 1012.7
20260506194557 8 129 1.6 8.0 0.00 0.00 0.00 72 1012.6
20260506194052 8 190 3.2 6.4 0.00 0.00 0.00 70 1012.7
20260506193552 8 242 0.0 6.4 0.00 0.00 0.00 74 1012.6
20260506193057 8 242 3.2 6.4 0.00 0.00 0.00 73 1012.6
20260506192550 7 260 0.0 8.0 0.00 0.00 0.00 74 1012.7
20260506192050 7 150 3.2 8.0 0.00 0.00 0.00 73 1012.6
20260506191601 7 191 3.2 8.0 0.00 0.00 0.00 73 1012.6
20260506191053 7 163 1.6 6.4 0.00 0.00 0.00 78 1012.5
20260506190555 7 96 1.6 6.4 0.00 0.00 0.00 77 1012.5
20260506190054 7 132 3.2 6.4 0.00 0.00 0.00 78 1012.5
20260506185605 6 58 1.6 6.4 0.00 0.00 0.00 80 1012.5
20260506185051 6 348 1.6 4.8 0.00 0.00 0.00 80 1012.5
20260506184600 6 348 3.2 4.8 0.00 0.00 0.00 79 1012.5
20260506184051 6 348 1.6 11.3 0.00 0.00 0.00 79 1012.5
20260506183552 6 85 3.2 11.3 0.00 0.00 0.00 80 1012.5
20260506183103 6 360 3.2 6.4 0.00 0.00 0.00 82 1012.5
20260506182549 6 5 1.6 4.8 0.00 0.00 0.00 82 1012.5
20260506182050 6 319 1.6 4.8 0.00 0.00 0.00 83 1012.5
20260506181604 5 0 1.6 6.4 0.00 0.00 0.00 84 1012.4
20260506181050 5 319 0.0 6.4 0.00 0.00 0.00 84 1012.4
20260506180554 5 315 1.6 4.8 0.00 0.00 0.00 85 1012.4
20260506180056 5 315 1.6 4.8 0.00 0.00 0.00 83 1012.3
20260506175549 5 315 1.6 4.8 0.00 0.00 0.00 84 1012.3
20260506175055 5 0 0.0 6.4 0.00 0.00 0.00 83 1012.3
20260506174556 5 15 1.6 6.4 0.00 0.00 0.00 82 1012.3
20260506174053 5 360 1.6 8.0 0.00 0.00 0.00 84 1012.4
20260506173550 5 281 3.2 8.0 0.00 0.00 0.00 84 1012.3
20260506173127 5 0 1.6 6.4 0.00 0.00 0.00 83 1012.3
20260506172551 5 311 0.0 4.8 0.00 0.00 0.00 82 1012.2
20260506172053 5 344 0.0 8.0 0.00 0.00 0.00 81 1012.2
20260506171604 5 343 1.6 8.0 0.00 0.00 0.00 82 1012.2
20260506171052 5 350 1.6 6.4 0.00 0.00 0.00 83 1012.2
20260506170552 5 78 1.6 4.8 0.00 0.00 0.00 83 1012.1
20260506170112 5 346 3.2 4.8 0.00 0.00 0.00 83 1012.2
20260506165552 5 346 0.0 4.8 0.00 0.00 0.00 83 1012.1
20260506165050 5 0 1.6 4.8 0.00 0.00 0.00 83 1012.1
20260506164600 5 346 0.0 3.2 0.00 0.00 0.00 84 1012.0
20260506164050 5 346 0.0 3.2 0.00 0.00 0.00 84 1011.9
20260506163549 5 346 0.0 4.8 0.00 0.00 0.00 86 1011.9
20260506163059 5 320 0.0 4.8 0.00 0.00 0.00 86 1011.8
20260506162551 5 0 0.0 4.8 0.00 0.00 0.00 88 1011.8
20260506162051 5 0 0.0 4.8 0.00 0.00 0.00 88 1011.9
20260506161557 4 341 0.0 4.8 0.00 0.00 0.00 87 1011.8
20260506161051 4 0 1.6 4.8 0.00 0.00 0.00 88 1011.8
20260506160551 4 0 0.0 3.2 0.00 0.00 0.00 90 1011.7
20260506160058 4 341 1.6 3.2 0.00 0.00 0.00 90 1011.7
20260506155555 3 30 0.0 0.0 0.00 0.00 0.00 93 1011.6
20260506155055 3 0 0.0 0.0 0.00 0.00 0.00 93 1011.5
20260506154613 3 0 0.0 0.0 0.00 0.00 0.00 93 1011.5
20260506154050 3 0 0.0 0.0 0.00 0.00 0.00 93 1011.4
20260506153550 3 0 0.0 0.0 0.00 0.00 0.00 93 1011.4
20260506153054 3 0 0.0 0.0 0.00 0.00 0.00 93 1011.4
20260506152552 3 0 0.0 0.0 0.00 0.00 0.00 92 1011.6
20260506152052 3 0 0.0 0.0 0.00 0.00 0.00 92 1011.5
20260506151558 2 0 0.0 0.0 0.00 0.00 0.00 92 1011.6
20260506151052 2 0 0.0 0.0 0.00 0.00 0.00 92 1011.6
20260506150551 2 0 0.0 1.6 0.00 0.00 0.00 92 1011.5
20260506150055 2 0 0.0 3.2 0.00 0.00 0.00 92 1011.5
20260506145552 2 0 0.0 3.2 0.00 0.00 0.00 92 1011.4
20260506145052 2 0 0.0 0.0 0.00 0.00 0.00 92 1011.5
20260506144559 2 0 0.0 0.0 0.00 0.00 0.00 92 1011.5
20260506144052 2 0 0.0 0.0 0.00 0.00 0.00 92 1011.5
20260506143555 2 0 0.0 0.0 0.00 0.00 0.00 92 1011.5
20260506143055 2 0 0.0 4.8 0.00 0.00 0.00 92 1011.4
20260506142549 2 0 0.0 4.8 0.00 0.00 0.00 92 1011.5
20260506142049 2 0 0.0 4.8 0.00 0.00 0.00 91 1011.3
20260506141600 2 0 0.0 3.2 0.00 0.00 0.00 91 1011.4
20260506141053 2 0 0.0 0.0 0.00 0.00 0.00 91 1011.4
20260506140553 2 0 0.0 0.0 0.00 0.00 0.00 90 1011.4
20260506140054 2 0 0.0 0.0 0.00 0.00 0.00 90 1011.3
20260506135552 2 0 0.0 0.0 0.00 0.00 0.00 90 1011.3
20260506135051 2 0 0.0 0.0 0.00 0.00 0.00 90 1011.4
20260506134557 2 0 0.0 0.0 0.00 0.00 0.00 89 1011.3
20260506134055 2 0 0.0 0.0 0.00 0.00 0.00 89 1011.4
20260506133552 2 0 0.0 1.6 0.00 0.00 0.00 88 1011.4
20260506133109 2 0 0.0 1.6 0.00 0.00 0.00 87 1011.4
20260506132551 2 0 0.0 3.2 0.00 0.00 0.00 87 1011.3
20260506132053 3 0 0.0 3.2 0.00 0.00 0.00 87 1011.4
20260506131554 3 0 0.0 1.6 0.00 0.00 0.00 87 1011.3
20260506131052 3 0 0.0 1.6 0.00 0.00 0.00 87 1011.3
20260506130552 3 0 0.0 3.2 0.00 0.00 0.00 87 1011.2
20260506130119 3 0 0.0 4.8 0.00 0.00 0.00 86 1011.2
20260506125551 3 0 1.6 4.8 0.00 0.00 0.00 86 1011.2
20260506125052 3 0 0.0 0.0 0.00 0.00 0.00 86 1011.2
20260506124554 3 0 0.0 1.6 0.00 0.00 0.00 86 1011.1
20260506124051 3 0 0.0 3.2 0.00 0.00 0.00 85 1011.2
20260506123552 3 0 0.0 3.2 0.00 0.00 0.00 85 1011.1
20260506123057 3 30 0.0 4.8 0.00 0.00 0.00 85 1011.1
20260506122553 3 30 0.0 4.8 0.00 0.00 0.00 85 1011.1
20260506122137 3 352 1.6 4.8 0.00 0.00 0.00 85 1011.0
20260506121556 3 352 0.0 3.2 0.00 0.00 0.00 85 1011.1
20260506121052 3 0 0.0 3.2 0.00 0.00 0.00 84 1011.0
20260506120552 3 352 0.0 4.8 0.00 0.00 0.00 84 1011.0
20260506115554 3 262 0.0 4.8 0.00 0.00 0.00 84 1010.9
20260506115051 3 0 0.0 4.8 0.00 0.00 0.00 83 1010.9
20260506114604 3 262 0.0 4.8 0.00 0.00 0.00 83 1010.8
20260506114051 3 0 0.0 4.8 0.00 0.00 0.00 83 1010.8
20260506113551 3 0 1.6 3.2 0.00 0.00 0.00 82 1010.8
20260506113056 4 0 0.0 4.8 0.00 0.00 0.00 82 1010.8
20260506112553 4 262 0.0 6.4 0.00 0.00 0.00 82 1010.9
20260506112055 4 262 3.2 8.0 0.00 0.00 0.00 82 1010.8
20260506111553 4 228 3.2 8.0 0.00 0.00 0.00 82 1010.7
20260506111052 4 0 1.6 6.4 0.00 0.00 0.00 81 1010.7
20260506110552 4 265 1.6 11.3 0.00 0.00 0.00 81 1010.7
20260506110057 4 257 3.2 11.3 0.00 0.00 0.00 80 1010.6
20260506105552 4 250 3.2 6.4 0.00 0.00 0.00 80 1010.6
20260506105052 4 267 1.6 4.8 0.00 0.00 0.00 79 1010.6
20260506104616 4 285 1.6 11.3 0.00 0.00 0.00 79 1010.4
20260506104051 4 246 3.2 11.3 0.00 0.00 0.00 78 1010.3
20260506103552 4 270 1.6 12.9 0.00 0.00 0.00 78 1010.2
20260506103053 4 237 3.2 12.9 0.00 0.00 0.00 78 1010.2
20260506102552 4 218 3.2 12.9 0.00 0.00 0.00 78 1010.1
20260506102052 4 271 4.8 12.9 0.00 0.00 0.00 78 1010.1
20260506101552 4 245 3.2 12.9 0.00 0.00 0.00 80 1010.2
20260506101051 3 279 1.6 4.8 0.00 0.00 0.00 81 1010.1
20260506100552 4 0 1.6 4.8 0.00 0.00 0.00 83 1010.1
20260506100053 4 296 1.6 6.4 0.00 0.00 0.00 83 1010.1
20260506095556 3 296 1.6 6.4 0.00 0.00 0.00 82 1010.0
20260506095052 3 329 1.6 4.8 0.00 0.00 0.00 83 1010.0
20260506094553 3 0 0.0 3.2 0.00 0.00 0.00 83 1010.0
20260506094052 3 329 0.0 4.8 0.00 0.00 0.00 83 1009.9
20260506093552 4 0 0.0 4.8 0.00 0.00 0.00 84 1009.8
20260506093057 4 0 1.6 4.8 0.00 0.00 0.00 84 1009.8
20260506092552 4 0 0.0 3.2 0.00 0.00 0.00 83 1009.8
20260506092053 4 0 0.0 3.2 0.00 0.00 0.00 83 1009.8
20260506091556 4 0 0.0 3.2 0.00 0.00 0.00 82 1009.8
20260506091053 4 0 0.0 1.6 0.00 0.00 0.00 82 1009.6
20260506090553 4 0 0.0 1.6 0.00 0.00 0.00 81 1009.6
20260506090057 5 0 0.0 1.6 0.00 0.00 0.00 81 1009.5
20260506085548 5 0 0.0 1.6 0.00 0.00 0.00 81 1009.5
20260506085050 5 0 0.0 4.8 0.00 0.00 0.00 81 1009.4
20260506084557 5 0 0.0 4.8 0.00 0.00 0.00 80 1009.3
20260506084052 5 329 0.0 4.8 0.00 0.00 0.00 80 1009.3
20260506083552 5 0 0.0 3.2 0.00 0.00 0.00 80 1009.3
20260506083056 5 0 0.0 3.2 0.00 0.00 0.00 80 1009.3
20260506082551 5 0 0.0 3.2 0.00 0.00 0.00 79 1009.3
20260506082052 5 290 0.0 4.8 0.00 0.00 0.00 79 1009.1
20260506081558 6 0 1.6 4.8 0.00 0.00 0.00 79 1009.2
20260506081052 6 0 0.0 4.8 0.00 0.00 0.00 78 1009.2
20260506080552 6 0 0.0 6.4 0.00 0.00 0.00 78 1009.2
20260506080109 6 0 1.6 8.0 0.00 0.00 0.00 77 1009.1
20260506073053 6 304 0.0 4.8 0.00 0.00 0.00 81 1009.1
20260506072553 6 0 0.0 4.8 0.00 0.00 0.00 80 1009.0
20260506072052 6 5 1.6 3.2 0.00 0.00 0.00 80 1009.0
20260506071620 6 0 0.0 8.0 0.00 0.00 0.00 79 1009.0
20260506071051 6 0 0.0 8.0 0.00 0.00 0.00 79 1008.8
20260506070552 6 16 3.2 8.0 0.00 0.00 0.00 78 1008.8
20260506062051 7 251 3.2 6.4 0.00 0.00 0.00 75 1008.3
20260506061556 7 293 1.6 8.0 0.00 0.00 0.00 74 1008.3
20260506061051 7 271 1.6 8.0 0.00 0.00 0.00 74 1008.1
20260506060555 7 323 1.6 4.8 0.00 0.00 0.00 73 1008.0